Tracking 20040 objects as of 19-Nov-2019
Live streaming from Space Station
objects crossing your sky now

LEASAT 5 PKM (SSUS-A)

Track LEASAT 5 PKM (SSUS-A) now!
10-day predictions


NORAD ID: 20411
Int'l Code: 1990-002C
Perigee: 358.2 km
Apogee: 11,887.0 km
Inclination: 27.2 °
Period: 231.6 minutes
Semi major axis: 12493 km
RCS: 3.708 m2 (large)
Launch date: January 9, 1990
Source: United States (US)
Launch site: AIR FORCE EASTERN TEST RANGE (AFETR)

Note: This is a ROCKET BODY
aabbcc
Your satellite tracking list
Your tracking list is empty




NASA's NSSDC Master Catalog

Two Line Element Set (TLE):
1 20411U 90002C   19321.23299188  .00000658  00000-0  18357-3 0  9993
2 20411  27.2287  25.1481 4613914 329.9347  10.1774  6.21686401579425
Source of the keplerian elements: AFSPC